| time (UTC) | temp C | wind direction | speed KPH | gust KPH | rain 1hr cm | rain 24hr cm | rain mn cm | humidity % | barometer mb |
| 20260906123242 | 21 | 143 | 0.0 | 0.0 | 0.00 | 0.00 | 0.00 | 92 | 1041.3 |
| 20260906122742 | 21 | 140 | 0.0 | 0.0 | 0.00 | 0.00 | 0.00 | 92 | 1041.4 |
| 20260906122237 | 21 | 142 | 0.0 | 0.0 | 0.00 | 0.00 | 0.00 | 92 | 1041.6 |
| 20260906121734 | 21 | 140 | 0.0 | 0.0 | 0.00 | 0.00 | 0.00 | 92 | 1041.4 |
| 20260906121230 | 21 | 140 | 0.0 | 0.0 | 0.00 | 0.00 | 0.00 | 92 | 1041.3 |
| 20260906120725 | 21 | 145 | 0.0 | 0.0 | 0.00 | 0.00 | 0.00 | 92 | 1041.4 |
| 20260906120222 | 21 | 144 | 0.0 | 0.0 | 0.00 | 0.00 | 0.00 | 92 | 1041.6 |
| 20260906115717 | 20 | 145 | 0.0 | 0.0 | 0.00 | 0.00 | 0.00 | 92 | 1041.2 |
| 20260906115212 | 20 | 146 | 0.0 | 0.0 | 0.00 | 0.00 | 0.00 | 92 | 1041.4 |
| 20260906114711 | 20 | 147 | 0.0 | 0.0 | 0.00 | 0.00 | 0.00 | 92 | 1041.1 |
| 20260906114206 | 20 | 159 | 0.0 | 0.0 | 0.00 | 0.00 | 0.00 | 92 | 1041.1 |
| 20260906113702 | 20 | 150 | 0.0 | 0.0 | 0.00 | 0.00 | 0.00 | 92 | 1041.1 |
| 20260906113201 | 20 | 164 | 0.0 | 1.6 | 0.00 | 0.00 | 0.00 | 92 | 1041.1 |
| 20260906112700 | 20 | 164 | 0.0 | 0.0 | 0.00 | 0.00 | 0.00 | 92 | 1041.2 |
| 20260906112158 | 20 | 164 | 0.0 | 0.0 | 0.00 | 0.00 | 0.00 | 92 | 1041.2 |
| 20260906111657 | 20 | 155 | 0.0 | 0.0 | 0.00 | 0.00 | 0.00 | 92 | 1041.3 |
| 20260906111152 | 20 | 150 | 0.0 | 0.0 | 0.00 | 0.00 | 0.00 | 92 | 1041.2 |
| 20260906110647 | 20 | 150 | 0.0 | 0.0 | 0.00 | 0.00 | 0.00 | 92 | 1041.2 |
| 20260906110142 | 20 | 149 | 0.0 | 0.0 | 0.00 | 0.00 | 0.00 | 92 | 1041.1 |
| 20260906105636 | 20 | 149 | 0.0 | 0.0 | 0.00 | 0.00 | 0.00 | 92 | 1041.1 |
| 20260906105132 | 20 | 148 | 0.0 | 0.0 | 0.00 | 0.00 | 0.00 | 92 | 1040.9 |
| 20260906104632 | 20 | 150 | 0.0 | 0.0 | 0.00 | 0.00 | 0.00 | 92 | 1041.1 |
| 20260906104131 | 20 | 147 | 0.0 | 0.0 | 0.00 | 0.00 | 0.00 | 92 | 1041.2 |
| 20260906103629 | 20 | 151 | 0.0 | 0.0 | 0.00 | 0.00 | 0.00 | 92 | 1040.9 |
| 20260906103125 | 20 | 151 | 0.0 | 0.0 | 0.00 | 0.00 | 0.00 | 92 | 1040.8 |
| 20260906102620 | 20 | 148 | 0.0 | 0.0 | 0.00 | 0.00 | 0.00 | 92 | 1040.8 |
| 20260906102115 | 20 | 150 | 0.0 | 0.0 | 0.00 | 0.00 | 0.00 | 92 | 1040.9 |
| 20260906101614 | 20 | 149 | 0.0 | 0.0 | 0.00 | 0.00 | 0.00 | 92 | 1040.8 |
| 20260906101109 | 20 | 144 | 0.0 | 0.0 | 0.00 | 0.00 | 0.00 | 92 | 1040.8 |
| 20260906100604 | 20 | 150 | 0.0 | 0.0 | 0.00 | 0.00 | 0.00 | 92 | 1040.7 |
| 20260906100105 | 20 | 144 | 0.0 | 0.0 | 0.00 | 0.00 | 0.00 | 92 | 1040.7 |
| 20260906095604 | 20 | 157 | 0.0 | 0.0 | 0.00 | 0.00 | 0.00 | 92 | 1040.6 |
| 20260906095100 | 20 | 155 | 0.0 | 0.0 | 0.00 | 0.00 | 0.00 | 92 | 1040.7 |
| 20260906094559 | 20 | 156 | 0.0 | 0.0 | 0.00 | 0.00 | 0.00 | 92 | 1040.8 |
| 20260906094055 | 20 | 151 | 0.0 | 0.0 | 0.00 | 0.00 | 0.00 | 92 | 1041.0 |
| 20260906093550 | 20 | 154 | 0.0 | 0.0 | 0.00 | 0.00 | 0.00 | 92 | 1041.0 |
| 20260906093045 | 20 | 144 | 0.0 | 0.0 | 0.00 | 0.00 | 0.00 | 92 | 1041.0 |
| 20260906092540 | 20 | 144 | 0.0 | 0.0 | 0.00 | 0.00 | 0.00 | 92 | 1041.0 |
| 20260906092035 | 20 | 143 | 0.0 | 0.0 | 0.00 | 0.00 | 0.00 | 92 | 1040.8 |
| 20260906091530 | 20 | 149 | 0.0 | 0.0 | 0.00 | 0.00 | 0.00 | 92 | 1040.8 |
| 20260906091027 | 20 | 148 | 0.0 | 0.0 | 0.00 | 0.00 | 0.00 | 92 | 1040.9 |
| 20260906090522 | 20 | 151 | 0.0 | 0.0 | 0.00 | 0.00 | 0.00 | 92 | 1040.6 |
| 20260906090017 | 20 | 147 | 0.0 | 0.0 | 0.00 | 0.00 | 0.00 | 92 | 1040.6 |
| 20260906085515 | 20 | 145 | 0.0 | 0.0 | 0.00 | 0.00 | 0.00 | 92 | 1040.6 |
| 20260906085015 | 20 | 148 | 0.0 | 0.0 | 0.00 | 0.00 | 0.00 | 92 | 1040.8 |
| 20260906084510 | 20 | 144 | 0.0 | 0.0 | 0.00 | 0.00 | 0.00 | 92 | 1040.7 |
| 20260906084009 | 21 | 173 | 0.0 | 0.0 | 0.00 | 0.00 | 0.00 | 92 | 1040.7 |
| 20260906083505 | 21 | 154 | 0.0 | 0.0 | 0.00 | 0.00 | 0.00 | 92 | 1040.6 |
| 20260906083004 | 21 | 163 | 0.0 | 0.0 | 0.00 | 0.00 | 0.00 | 92 | 1040.8 |
| 20260906082459 | 20 | 163 | 0.0 | 0.0 | 0.00 | 0.00 | 0.00 | 92 | 1040.7 |
| 20260906081955 | 20 | 152 | 0.0 | 0.0 | 0.00 | 0.00 | 0.00 | 92 | 1040.8 |
| 20260906081450 | 20 | 159 | 0.0 | 0.0 | 0.00 | 0.00 | 0.00 | 92 | 1040.9 |
| 20260906080946 | 20 | 155 | 0.0 | 0.0 | 0.00 | 0.00 | 0.00 | 92 | 1040.7 |
| 20260906080442 | 20 | 152 | 0.0 | 0.0 | 0.00 | 0.00 | 0.00 | 92 | 1040.7 |
| 20260906075937 | 20 | 154 | 0.0 | 0.0 | 0.00 | 0.00 | 0.00 | 92 | 1040.5 |
| 20260906075432 | 20 | 151 | 0.0 | 0.0 | 0.00 | 0.00 | 0.00 | 92 | 1040.5 |
| 20260906074927 | 20 | 152 | 0.0 | 0.0 | 0.00 | 0.00 | 0.00 | 92 | 1040.6 |
| 20260906074427 | 20 | 154 | 0.0 | 0.0 | 0.00 | 0.00 | 0.00 | 92 | 1040.6 |
| 20260906073925 | 20 | 175 | 1.6 | 1.6 | 0.00 | 0.00 | 0.00 | 92 | 1040.6 |
| 20260906073420 | 21 | 165 | 0.0 | 0.0 | 0.00 | 0.00 | 0.00 | 92 | 1040.6 |
| 20260906072917 | 21 | 151 | 0.0 | 0.0 | 0.00 | 0.00 | 0.00 | 92 | 1040.4 |
| 20260906072412 | 21 | 149 | 0.0 | 0.0 | 0.00 | 0.00 | 0.00 | 92 | 1040.4 |
| 20260906071908 | 21 | 148 | 0.0 | 0.0 | 0.00 | 0.00 | 0.00 | 92 | 1040.7 |
| 20260906071404 | 20 | 149 | 0.0 | 0.0 | 0.00 | 0.00 | 0.00 | 92 | 1040.4 |
| 20260906070859 | 21 | 144 | 0.0 | 0.0 | 0.00 | 0.00 | 0.00 | 92 | 1040.6 |
| 20260906070355 | 20 | 150 | 0.0 | 0.0 | 0.00 | 0.00 | 0.00 | 92 | 1040.6 |
| 20260906065850 | 20 | 147 | 0.0 | 0.0 | 0.00 | 0.00 | 0.00 | 92 | 1040.5 |
| 20260906065344 | 21 | 147 | 0.0 | 0.0 | 0.00 | 0.00 | 0.00 | 92 | 1040.5 |
| 20260906064840 | 21 | 159 | 0.0 | 0.0 | 0.00 | 0.00 | 0.00 | 92 | 1040.8 |
| 20260906064337 | 21 | 144 | 0.0 | 0.0 | 0.00 | 0.00 | 0.00 | 92 | 1040.6 |
| 20260906063836 | 21 | 148 | 0.0 | 0.0 | 0.00 | 0.00 | 0.00 | 92 | 1040.8 |
| 20260906063332 | 21 | 144 | 0.0 | 0.0 | 0.00 | 0.00 | 0.00 | 92 | 1040.8 |
| 20260906062827 | 21 | 141 | 0.0 | 0.0 | 0.00 | 0.00 | 0.00 | 92 | 1040.9 |
| 20260906062320 | 21 | 144 | 0.0 | 0.0 | 0.00 | 0.00 | 0.00 | 92 | 1041.2 |
| 20260906061816 | 21 | 144 | 0.0 | 0.0 | 0.00 | 0.00 | 0.00 | 92 | 1041.1 |
| 20260906061312 | 21 | 142 | 0.0 | 0.0 | 0.00 | 0.00 | 0.00 | 91 | 1041.1 |
| 20260906060807 | 21 | 139 | 0.0 | 0.0 | 0.00 | 0.00 | 0.00 | 91 | 1041.2 |
| 20260906060305 | 21 | 130 | 0.0 | 0.0 | 0.00 | 0.00 | 0.00 | 91 | 1041.2 |
| 20260906055800 | 21 | 141 | 0.0 | 0.0 | 0.00 | 0.00 | 0.00 | 91 | 1041.1 |
| 20260906055255 | 21 | 142 | 0.0 | 0.0 | 0.00 | 0.00 | 0.00 | 91 | 1041.1 |
| 20260906054750 | 21 | 146 | 0.0 | 0.0 | 0.00 | 0.00 | 0.00 | 91 | 1041.2 |
| 20260906054246 | 21 | 150 | 0.0 | 0.0 | 0.00 | 0.00 | 0.00 | 90 | 1041.6 |
| 20260906053743 | 21 | 147 | 0.0 | 0.0 | 0.00 | 0.00 | 0.00 | 90 | 1041.7 |
| 20260906053238 | 21 | 147 | 0.0 | 0.0 | 0.00 | 0.00 | 0.00 | 90 | 1041.9 |
| 20260906052733 | 21 | 147 | 0.0 | 0.0 | 0.00 | 0.00 | 0.00 | 90 | 1042.0 |
| 20260906052229 | 21 | 141 | 0.0 | 0.0 | 0.00 | 0.00 | 0.00 | 89 | 1041.9 |
| 20260906051726 | 21 | 148 | 0.0 | 0.0 | 0.00 | 0.00 | 0.00 | 89 | 1042.0 |
| 20260906051225 | 21 | 145 | 0.0 | 0.0 | 0.00 | 0.00 | 0.00 | 89 | 1041.7 |
| 20260906050720 | 22 | 153 | 0.0 | 0.0 | 0.00 | 0.00 | 0.00 | 88 | 1041.7 |
| 20260906050216 | 22 | 150 | 0.0 | 0.0 | 0.00 | 0.00 | 0.00 | 88 | 1041.7 |
| 20260906045714 | 22 | 138 | 0.0 | 0.0 | 0.00 | 0.00 | 0.00 | 88 | 1041.6 |
| 20260906045209 | 22 | 155 | 0.0 | 0.0 | 0.00 | 0.00 | 0.00 | 88 | 1041.7 |
| 20260906044705 | 22 | 151 | 0.0 | 0.0 | 0.00 | 0.00 | 0.00 | 87 | 1041.6 |
| 20260906044200 | 22 | 146 | 0.0 | 0.0 | 0.00 | 0.00 | 0.00 | 87 | 1041.3 |
| 20260906043656 | 22 | 148 | 0.0 | 0.0 | 0.00 | 0.00 | 0.00 | 87 | 1041.4 |
| 20260906043152 | 22 | 151 | 0.0 | 0.0 | 0.00 | 0.00 | 0.00 | 87 | 1041.2 |
| 20260906042651 | 22 | 145 | 0.0 | 0.0 | 0.00 | 0.00 | 0.00 | 87 | 1041.2 |
| 20260906042145 | 22 | 149 | 0.0 | 0.0 | 0.00 | 0.00 | 0.00 | 87 | 1041.1 |
| 20260906041641 | 22 | 141 | 0.0 | 0.0 | 0.00 | 0.00 | 0.00 | 87 | 1041.2 |
| 20260906041136 | 22 | 135 | 0.0 | 0.0 | 0.00 | 0.00 | 0.00 | 87 | 1041.2 |
| 20260906040631 | 22 | 141 | 0.0 | 0.0 | 0.00 | 0.00 | 0.00 | 87 | 1041.3 |
| 20260906040126 | 22 | 138 | 0.0 | 0.0 | 0.00 | 0.00 | 0.00 | 87 | 1041.3 |
| 20260906035621 | 22 | 151 | 0.0 | 0.0 | 0.00 | 0.00 | 0.00 | 87 | 1041.2 |
| 20260906035118 | 22 | 138 | 0.0 | 0.0 | 0.00 | 0.00 | 0.00 | 86 | 1041.2 |
| 20260906034617 | 22 | 153 | 1.6 | 1.6 | 0.00 | 0.00 | 0.00 | 86 | 1041.2 |
| 20260906034112 | 22 | 136 | 1.6 | 1.6 | 0.00 | 0.00 | 0.00 | 86 | 1041.4 |
| 20260906033608 | 22 | 177 | 1.6 | 1.6 | 0.00 | 0.00 | 0.00 | 86 | 1041.3 |
| 20260906033103 | 22 | 165 | 1.6 | 1.6 | 0.00 | 0.00 | 0.00 | 85 | 1041.6 |
| 20260906032600 | 22 | 153 | 0.0 | 0.0 | 0.00 | 0.00 | 0.00 | 85 | 1041.4 |
| 20260906032059 | 22 | 140 | 0.0 | 0.0 | 0.00 | 0.00 | 0.00 | 85 | 1041.3 |
| 20260906031555 | 22 | 159 | 0.0 | 0.0 | 0.00 | 0.00 | 0.00 | 85 | 1041.4 |
| 20260906031050 | 22 | 144 | 0.0 | 0.0 | 0.00 | 0.00 | 0.00 | 84 | 1041.9 |
| 20260906030549 | 22 | 150 | 0.0 | 0.0 | 0.00 | 0.00 | 0.00 | 84 | 1041.9 |
| 20260906030044 | 22 | 150 | 0.0 | 0.0 | 0.00 | 0.00 | 0.00 | 84 | 1041.8 |
| 20260906025544 | 22 | 145 | 0.0 | 0.0 | 0.00 | 0.00 | 0.00 | 84 | 1041.9 |
| 20260906025042 | 22 | 150 | 0.0 | 0.0 | 0.00 | 0.00 | 0.00 | 83 | 1041.8 |
| 20260906024538 | 22 | 149 | 0.0 | 0.0 | 0.00 | 0.00 | 0.00 | 83 | 1042.1 |
| 20260906024037 | 22 | 143 | 0.0 | 0.0 | 0.00 | 0.00 | 0.00 | 83 | 1042.0 |
| 20260906023534 | 22 | 146 | 0.0 | 0.0 | 0.00 | 0.00 | 0.00 | 83 | 1042.2 |
| 20260906023028 | 22 | 153 | 0.0 | 0.0 | 0.00 | 0.00 | 0.00 | 83 | 1042.1 |
| 20260906022523 | 22 | 148 | 0.0 | 0.0 | 0.00 | 0.00 | 0.00 | 83 | 1042.0 |
| 20260906022019 | 22 | 131 | 0.0 | 0.0 | 0.00 | 0.00 | 0.00 | 83 | 1041.8 |
| 20260906021514 | 22 | 148 | 0.0 | 0.0 | 0.00 | 0.00 | 0.00 | 82 | 1042.0 |
| 20260906021008 | 22 | 140 | 0.0 | 0.0 | 0.00 | 0.00 | 0.00 | 82 | 1042.1 |
| 20260906020508 | 22 | 147 | 0.0 | 0.0 | 0.00 | 0.00 | 0.00 | 82 | 1041.9 |
| 20260906020007 | 22 | 142 | 0.0 | 0.0 | 0.00 | 0.00 | 0.00 | 83 | 1041.8 |
| 20260906015507 | 22 | 148 | 0.0 | 0.0 | 0.00 | 0.00 | 0.00 | 83 | 1041.7 |
| 20260906015006 | 22 | 176 | 0.0 | 0.0 | 0.00 | 0.00 | 0.00 | 82 | 1041.9 |
| 20260905232429 | 30 | 38 | 3.2 | 4.8 | 0.00 | 0.00 | 0.00 | 59 | 1039.2 |
| 20260905231924 | 30 | 38 | 3.2 | 4.8 | 0.00 | 0.00 | 0.00 | 59 | 1039.2 |
| 20260905231420 | 31 | 31 | 8.0 | 9.7 | 0.00 | 0.00 | 0.00 | 56 | 1039.9 |
| 20260905230916 | 32 | 53 | 3.2 | 4.8 | 0.00 | 0.00 | 0.00 | 54 | 1040.0 |
| 20260905230414 | 32 | 139 | 1.6 | 3.2 | 0.00 | 0.00 | 0.00 | 54 | 1039.9 |
| 20260905225913 | 33 | 133 | 0.0 | 0.0 | 0.00 | 0.00 | 0.00 | 56 | 1039.1 |
| 20260905225409 | 34 | 145 | 0.0 | 0.0 | 0.00 | 0.00 | 0.00 | 51 | 1039.3 |
| 20260905224903 | 35 | 154 | 0.0 | 0.0 | 0.00 | 0.00 | 0.00 | 51 | 1039.2 |
| 20260905224359 | 35 | 149 | 0.0 | 0.0 | 0.00 | 0.00 | 0.00 | 51 | 1039.1 |
| 20260905223853 | 34 | 149 | 0.0 | 0.0 | 0.00 | 0.00 | 0.00 | 49 | 1039.1 |
| 20260905223351 | 34 | 167 | 1.6 | 1.6 | 0.00 | 0.00 | 0.00 | 48 | 1039.2 |
| 20260905222846 | 34 | 167 | 1.6 | 1.6 | 0.00 | 0.00 | 0.00 | 47 | 1039.3 |
| 20260905222344 | 35 | 198 | 3.2 | 3.2 | 0.00 | 0.00 | 0.00 | 49 | 1039.2 |
| 20260905221841 | 34 | 167 | 1.6 | 1.6 | 0.00 | 0.00 | 0.00 | 47 | 1039.2 |
| 20260905221337 | 34 | 161 | 1.6 | 1.6 | 0.00 | 0.00 | 0.00 | 46 | 1039.2 |
| 20260905220833 | 35 | 204 | 4.8 | 4.8 | 0.00 | 0.00 | 0.00 | 47 | 1039.0 |
| 20260905220329 | 35 | 196 | 3.2 | 3.2 | 0.00 | 0.00 | 0.00 | 45 | 1039.2 |
| 20260905215828 | 35 | 175 | 0.0 | 1.6 | 0.00 | 0.00 | 0.00 | 45 | 1039.2 |
| 20260905215323 | 35 | 146 | 0.0 | 0.0 | 0.00 | 0.00 | 0.00 | 45 | 1039.1 |
| 20260905214820 | 35 | 117 | 3.2 | 3.2 | 0.00 | 0.00 | 0.00 | 44 | 1039.1 |
| 20260905214315 | 35 | 216 | 1.6 | 3.2 | 0.00 | 0.00 | 0.00 | 45 | 1039.1 |
| 20260905213810 | 35 | 163 | 0.0 | 1.6 | 0.00 | 0.00 | 0.00 | 45 | 1039.0 |
| 20260905213306 | 36 | 153 | 1.6 | 1.6 | 0.00 | 0.00 | 0.00 | 44 | 1039.1 |
| 20260905212801 | 36 | 149 | 1.6 | 1.6 | 0.00 | 0.00 | 0.00 | 44 | 1039.1 |
| 20260905212301 | 36 | 205 | 3.2 | 3.2 | 0.00 | 0.00 | 0.00 | 43 | 1038.9 |
| 20260905211755 | 36 | 153 | 0.0 | 0.0 | 0.00 | 0.00 | 0.00 | 44 | 1039.0 |
| 20260905211250 | 36 | 153 | 1.6 | 1.6 | 0.00 | 0.00 | 0.00 | 43 | 1039.2 |
| 20260905210747 | 36 | 122 | 1.6 | 1.6 | 0.00 | 0.00 | 0.00 | 44 | 1039.2 |
| 20260905210247 | 36 | 144 | 0.0 | 0.0 | 0.00 | 0.00 | 0.00 | 42 | 1039.3 |
| 20260905205745 | 37 | 145 | 0.0 | 0.0 | 0.00 | 0.00 | 0.00 | 43 | 1039.5 |
| 20260905205241 | 37 | 157 | 1.6 | 1.6 | 0.00 | 0.00 | 0.00 | 42 | 1039.5 |
| 20260905204740 | 37 | 118 | 1.6 | 1.6 | 0.00 | 0.00 | 0.00 | 43 | 1039.8 |
| 20260905204236 | 37 | 151 | 0.0 | 0.0 | 0.00 | 0.00 | 0.00 | 44 | 1039.7 |
| 20260905203735 | 36 | 158 | 1.6 | 3.2 | 0.00 | 0.00 | 0.00 | 42 | 1039.6 |
| 20260905203230 | 36 | 178 | 1.6 | 3.2 | 0.00 | 0.00 | 0.00 | 45 | 1039.5 |
| 20260905202725 | 36 | 127 | 1.6 | 1.6 | 0.00 | 0.00 | 0.00 | 44 | 1039.5 |
| 20260905202221 | 36 | 147 | 0.0 | 0.0 | 0.00 | 0.00 | 0.00 | 44 | 1039.7 |
| 20260905201717 | 36 | 200 | 4.8 | 4.8 | 0.00 | 0.00 | 0.00 | 45 | 1040.1 |
| 20260905201217 | 36 | 151 | 1.6 | 1.6 | 0.00 | 0.00 | 0.00 | 46 | 1040.0 |
| 20260905200712 | 36 | 152 | 1.6 | 1.6 | 0.00 | 0.00 | 0.00 | 45 | 1040.0 |
| 20260905200208 | 37 | 146 | 1.6 | 3.2 | 0.00 | 0.00 | 0.00 | 46 | 1040.0 |
| 20260905195706 | 36 | 135 | 1.6 | 3.2 | 0.00 | 0.00 | 0.00 | 45 | 1040.2 |
| 20260905195201 | 36 | 151 | 1.6 | 3.2 | 0.00 | 0.00 | 0.00 | 45 | 1040.3 |
| 20260905194656 | 37 | 228 | 0.0 | 1.6 | 0.00 | 0.00 | 0.00 | 44 | 1040.6 |
| 20260905194155 | 37 | 229 | 3.2 | 3.2 | 0.00 | 0.00 | 0.00 | 44 | 1040.6 |
| 20260905193650 | 36 | 192 | 4.8 | 4.8 | 0.00 | 0.00 | 0.00 | 46 | 1040.6 |
| 20260905193145 | 36 | 144 | 1.6 | 3.2 | 0.00 | 0.00 | 0.00 | 48 | 1040.5 |
| 20260905192640 | 35 | 196 | 1.6 | 1.6 | 0.00 | 0.00 | 0.00 | 48 | 1040.4 |
| 20260905192137 | 35 | 94 | 3.2 | 3.2 | 0.00 | 0.00 | 0.00 | 49 | 1040.4 |
| 20260905191636 | 36 | 305 | 4.8 | 4.8 | 0.00 | 0.00 | 0.00 | 47 | 1040.6 |
| 20260905191134 | 37 | 148 | 0.0 | 1.6 | 0.00 | 0.00 | 0.00 | 47 | 1040.6 |
| 20260905190633 | 36 | 132 | 0.0 | 0.0 | 0.00 | 0.00 | 0.00 | 48 | 1040.4 |
| 20260905190132 | 36 | 154 | 0.0 | 0.0 | 0.00 | 0.00 | 0.00 | 46 | 1040.7 |
| 20260905185631 | 36 | 165 | 1.6 | 3.2 | 0.00 | 0.00 | 0.00 | 46 | 1040.4 |
| 20260905185126 | 35 | 269 | 1.6 | 1.6 | 0.00 | 0.00 | 0.00 | 46 | 1040.6 |
| 20260905184620 | 35 | 94 | 1.6 | 9.7 | 0.00 | 0.00 | 0.00 | 47 | 1041.0 |
| 20260905184119 | 35 | 150 | 0.0 | 1.6 | 0.00 | 0.00 | 0.00 | 47 | 1041.0 |
| 20260905183618 | 35 | 131 | 3.2 | 4.8 | 0.00 | 0.00 | 0.00 | 47 | 1040.9 |
| 20260905183114 | 36 | 151 | 1.6 | 1.6 | 0.00 | 0.00 | 0.00 | 46 | 1041.3 |
| 20260905182614 | 36 | 138 | 0.0 | 0.0 | 0.00 | 0.00 | 0.00 | 48 | 1041.3 |
| 20260905182113 | 37 | 173 | 0.0 | 0.0 | 0.00 | 0.00 | 0.00 | 44 | 1041.2 |
| 20260905181608 | 36 | 154 | 0.0 | 0.0 | 0.00 | 0.00 | 0.00 | 47 | 1041.2 |
| 20260905181107 | 36 | 152 | 1.6 | 3.2 | 0.00 | 0.00 | 0.00 | 45 | 1041.6 |
| 20260905180602 | 36 | 172 | 1.6 | 1.6 | 0.00 | 0.00 | 0.00 | 44 | 1041.4 |
| 20260905180058 | 36 | 160 | 0.0 | 0.0 | 0.00 | 0.00 | 0.00 | 45 | 1041.4 |
| 20260905175556 | 36 | 165 | 1.6 | 3.2 | 0.00 | 0.00 | 0.00 | 42 | 1041.4 |
| 20260905175052 | 35 | 150 | 0.0 | 1.6 | 0.00 | 0.00 | 0.00 | 50 | 1041.7 |
| 20260905174548 | 35 | 147 | 0.0 | 0.0 | 0.00 | 0.00 | 0.00 | 49 | 1041.7 |
| 20260905174043 | 35 | 169 | 0.0 | 1.6 | 0.00 | 0.00 | 0.00 | 49 | 1041.6 |
| 20260905173540 | 35 | 146 | 0.0 | 0.0 | 0.00 | 0.00 | 0.00 | 51 | 1041.8 |
| 20260905173035 | 35 | 129 | 1.6 | 1.6 | 0.00 | 0.00 | 0.00 | 54 | 1042.1 |
| 20260905172533 | 35 | 169 | 3.2 | 3.2 | 0.00 | 0.00 | 0.00 | 52 | 1041.9 |
| 20260905172029 | 34 | 142 | 0.0 | 1.6 | 0.00 | 0.00 | 0.00 | 52 | 1042.1 |
| 20260905171525 | 35 | 77 | 3.2 | 4.8 | 0.00 | 0.00 | 0.00 | 51 | 1042.2 |
| 20260905171021 | 34 | 120 | 1.6 | 1.6 | 0.00 | 0.00 | 0.00 | 54 | 1042.0 |
| 20260905170518 | 34 | 195 | 1.6 | 1.6 | 0.00 | 0.00 | 0.00 | 53 | 1042.0 |
| 20260905170012 | 34 | 149 | 0.0 | 0.0 | 0.00 | 0.00 | 0.00 | 53 | 1042.2 |
| 20260905165507 | 34 | 174 | 1.6 | 1.6 | 0.00 | 0.00 | 0.00 | 55 | 1042.2 |
| 20260905165002 | 34 | 170 | 1.6 | 3.2 | 0.00 | 0.00 | 0.00 | 54 | 1042.3 |
| 20260905164502 | 34 | 165 | 0.0 | 1.6 | 0.00 | 0.00 | 0.00 | 55 | 1042.5 |
| 20260905163956 | 34 | 117 | 3.2 | 3.2 | 0.00 | 0.00 | 0.00 | 54 | 1042.5 |
| 20260905163453 | 35 | 143 | 0.0 | 1.6 | 0.00 | 0.00 | 0.00 | 54 | 1042.5 |
| 20260905162949 | 33 | 147 | 0.0 | 0.0 | 0.00 | 0.00 | 0.00 | 54 | 1042.7 |
| 20260905162444 | 33 | 182 | 3.2 | 3.2 | 0.00 | 0.00 | 0.00 | 56 | 1042.6 |
| 20260905161939 | 33 | 166 | 1.6 | 1.6 | 0.00 | 0.00 | 0.00 | 54 | 1042.7 |
| 20260905161438 | 33 | 131 | 1.6 | 3.2 | 0.00 | 0.00 | 0.00 | 55 | 1042.8 |
| 20260905160936 | 33 | 124 | 1.6 | 3.2 | 0.00 | 0.00 | 0.00 | 55 | 1042.9 |
| 20260905160430 | 34 | 151 | 4.8 | 4.8 | 0.00 | 0.00 | 0.00 | 53 | 1043.0 |
| 20260905155929 | 34 | 145 | 0.0 | 1.6 | 0.00 | 0.00 | 0.00 | 54 | 1042.9 |
| 20260905155425 | 33 | 135 | 3.2 | 3.2 | 0.00 | 0.00 | 0.00 | 55 | 1043.2 |
| 20260905154923 | 33 | 133 | 1.6 | 1.6 | 0.00 | 0.00 | 0.00 | 57 | 1043.0 |
| 20260905154419 | 33 | 145 | 0.0 | 0.0 | 0.00 | 0.00 | 0.00 | 57 | 1043.2 |
| 20260905153914 | 33 | 164 | 0.0 | 0.0 | 0.00 | 0.00 | 0.00 | 59 | 1043.1 |
| 20260905153410 | 33 | 146 | 0.0 | 1.6 | 0.00 | 0.00 | 0.00 | 60 | 1043.3 |
| 20260905152910 | 32 | 141 | 0.0 | 0.0 | 0.00 | 0.00 | 0.00 | 63 | 1043.1 |
| 20260905152409 | 32 | 201 | 4.8 | 8.0 | 0.00 | 0.00 | 0.00 | 63 | 1043.1 |
| 20260905151905 | 33 | 179 | 1.6 | 1.6 | 0.00 | 0.00 | 0.00 | 61 | 1043.2 |
| 20260905151401 | 32 | 174 | 0.0 | 1.6 | 0.00 | 0.00 | 0.00 | 61 | 1043.3 |
| 20260905150900 | 32 | 154 | 0.0 | 0.0 | 0.00 | 0.00 | 0.00 | 61 | 1043.5 |
| 20260905150354 | 32 | 213 | 4.8 | 4.8 | 0.00 | 0.00 | 0.00 | 62 | 1043.2 |
| 20260905145852 | 31 | 135 | 0.0 | 0.0 | 0.00 | 0.00 | 0.00 | 61 | 1043.3 |
| 20260905145346 | 31 | 131 | 1.6 | 1.6 | 0.00 | 0.00 | 0.00 | 64 | 1043.3 |
| 20260905144845 | 31 | 182 | 1.6 | 1.6 | 0.00 | 0.00 | 0.00 | 64 | 1043.3 |
| 20260905144341 | 31 | 144 | 0.0 | 0.0 | 0.00 | 0.00 | 0.00 | 67 | 1043.4 |
| 20260905143839 | 31 | 142 | 0.0 | 1.6 | 0.00 | 0.00 | 0.00 | 68 | 1043.4 |
| 20260905143334 | 31 | 161 | 1.6 | 1.6 | 0.00 | 0.00 | 0.00 | 66 | 1043.3 |
| 20260905142834 | 30 | 142 | 0.0 | 0.0 | 0.00 | 0.00 | 0.00 | 69 | 1043.6 |
| 20260905142332 | 30 | 147 | 0.0 | 0.0 | 0.00 | 0.00 | 0.00 | 68 | 1043.6 |
| 20260905141829 | 30 | 154 | 0.0 | 0.0 | 0.00 | 0.00 | 0.00 | 72 | 1043.5 |
| 20260905141324 | 30 | 146 | 0.0 | 0.0 | 0.00 | 0.00 | 0.00 | 73 | 1043.4 |
| 20260905140820 | 30 | 143 | 0.0 | 0.0 | 0.00 | 0.00 | 0.00 | 73 | 1043.5 |
| 20260905140320 | 28 | 142 | 0.0 | 0.0 | 0.00 | 0.00 | 0.00 | 73 | 1043.6 |
| 20260905135818 | 28 | 176 | 1.6 | 1.6 | 0.00 | 0.00 | 0.00 | 73 | 1043.7 |
| 20260905135314 | 28 | 152 | 0.0 | 0.0 | 0.00 | 0.00 | 0.00 | 76 | 1043.6 |
| 20260905134810 | 28 | 142 | 0.0 | 0.0 | 0.00 | 0.00 | 0.00 | 76 | 1043.7 |
| 20260905134309 | 28 | 141 | 0.0 | 0.0 | 0.00 | 0.00 | 0.00 | 77 | 1043.7 |
| 20260905133809 | 27 | 142 | 0.0 | 0.0 | 0.00 | 0.00 | 0.00 | 79 | 1043.5 |
| 20260905133304 | 27 | 133 | 0.0 | 0.0 | 0.00 | 0.00 | 0.00 | 80 | 1043.8 |
| 20260905132803 | 26 | 143 | 0.0 | 1.6 | 0.00 | 0.00 | 0.00 | 81 | 1044.0 |
| 20260905132259 | 26 | 131 | 1.6 | 1.6 | 0.00 | 0.00 | 0.00 | 83 | 1044.0 |
| 20260905131753 | 26 | 141 | 0.0 | 0.0 | 0.00 | 0.00 | 0.00 | 83 | 1043.8 |
| 20260905131249 | 26 | 135 | 0.0 | 0.0 | 0.00 | 0.00 | 0.00 | 85 | 1043.9 |
| 20260905130744 | 25 | 105 | 0.0 | 0.0 | 0.00 | 0.00 | 0.00 | 86 | 1043.9 |
| 20260905130243 | 25 | 138 | 0.0 | 0.0 | 0.00 | 0.00 | 0.00 | 89 | 1044.0 |
| 20260905125738 | 25 | 139 | 0.0 | 0.0 | 0.00 | 0.00 | 0.00 | 89 | 1043.7 |
| 20260905125233 | 24 | 127 | 0.0 | 0.0 | 0.00 | 0.00 | 0.00 | 91 | 1043.6 |
| 20260905124730 | 24 | 147 | 0.0 | 0.0 | 0.00 | 0.00 | 0.00 | 92 | 1043.7 |
| 20260905124225 | 23 | 144 | 0.0 | 0.0 | 0.00 | 0.00 | 0.00 | 92 | 1044.0 |
| 20260905123720 | 23 | 146 | 0.0 | 0.0 | 0.00 | 0.00 | 0.00 | 92 | 1043.8 |